AFR78RT LFPG-LFLL

Flight info

Callsign AFR78RT
Flight time 0h 46m
Altitude 25000
Route OKASI DCT OKEKO DCT OKEPI DCT MOU
Aircraft A321/M-SDE2E3FGIJ1RWY/HB1

Departure

Time 2026-05-08 20:08
Airport Charles de Gaulle International Airport (LFPG)

Arrival

Time 2026-05-08 20:54
Airport Lyon Saint-Exupéry Airport (LFLL)
Time Latitude Longitude Altitude Speed Heading
2026-05-08 19:36 49.00631 2.57597 361 ft 0 kts 262°
2026-05-08 19:49 49.00633 2.57626 362 ft 4 kts 262°
2026-05-08 19:50 49.00637 2.57666 363 ft 4 kts 262°
2026-05-08 19:50 49.00640 2.57695 360 ft 0 kts 262°
2026-05-08 19:54 49.00639 2.57691 354 ft 4 kts 264°
2026-05-08 19:54 49.00674 2.57664 360 ft 11 kts 355°
2026-05-08 19:55 49.00711 2.57663 359 ft 5 kts 359°
2026-05-08 19:55 49.00716 2.57663 357 ft 0 kts 359°
2026-05-08 19:55 49.00732 2.57661 354 ft 2 kts 354°
2026-05-08 19:55 49.00744 2.57656 354 ft 2 kts 341°
2026-05-08 19:56 49.00752 2.57651 354 ft 1 kts 334°
2026-05-08 19:56 49.00756 2.57647 354 ft 1 kts 329°
2026-05-08 19:56 49.00760 2.57642 361 ft 1 kts 326°
2026-05-08 19:56 49.00771 2.57630 364 ft 3 kts 322°
2026-05-08 19:57 49.00777 2.57623 360 ft 0 kts 322°
2026-05-08 19:57 49.00782 2.57616 361 ft 3 kts 322°
2026-05-08 19:57 49.00811 2.57584 356 ft 7 kts 327°
2026-05-08 19:58 49.00865 2.57538 360 ft 9 kts 308°
2026-05-08 19:58 49.00873 2.57452 359 ft 8 kts 268°
2026-05-08 19:58 49.00868 2.57371 354 ft 8 kts 264°
2026-05-08 19:58 49.00863 2.57289 357 ft 8 kts 264°
2026-05-08 19:59 49.00858 2.57205 357 ft 9 kts 265°
2026-05-08 19:59 49.00854 2.57108 361 ft 10 kts 266°
2026-05-08 19:59 49.00848 2.56999 360 ft 11 kts 265°
2026-05-08 19:59 49.00841 2.56877 354 ft 12 kts 265°
2026-05-08 20:00 49.00835 2.56740 359 ft 14 kts 265°
2026-05-08 20:00 49.00826 2.56589 354 ft 15 kts 264°
2026-05-08 20:00 49.00814 2.56422 358 ft 17 kts 263°
2026-05-08 20:00 49.00797 2.56241 354 ft 18 kts 261°
2026-05-08 20:01 49.00778 2.56043 361 ft 20 kts 262°
2026-05-08 20:01 49.00759 2.55840 355 ft 19 kts 262°
2026-05-08 20:01 49.00742 2.55654 354 ft 13 kts 263°
2026-05-08 20:01 49.00733 2.55528 360 ft 9 kts 263°
2026-05-08 20:02 49.00725 2.55440 355 ft 8 kts 263°
2026-05-08 20:02 49.00719 2.55362 356 ft 7 kts 259°
2026-05-08 20:02 49.00696 2.55293 359 ft 8 kts 239°
2026-05-08 20:02 49.00656 2.55246 356 ft 8 kts 191°
2026-05-08 20:03 49.00604 2.55260 361 ft 8 kts 161°
2026-05-08 20:03 49.00547 2.55287 354 ft 9 kts 164°
2026-05-08 20:03 49.00484 2.55312 362 ft 10 kts 164°
2026-05-08 20:03 49.00409 2.55345 354 ft 12 kts 163°
2026-05-08 20:04 49.00318 2.55386 354 ft 15 kts 163°
2026-05-08 20:04 49.00209 2.55433 359 ft 18 kts 164°
2026-05-08 20:04 49.00087 2.55486 354 ft 17 kts 164°
2026-05-08 20:04 48.99984 2.55532 360 ft 15 kts 164°
2026-05-08 20:05 48.99892 2.55590 358 ft 14 kts 141°
2026-05-08 20:05 48.99841 2.55699 360 ft 10 kts 111°
2026-05-08 20:05 48.99822 2.55796 356 ft 9 kts 105°
2026-05-08 20:05 48.99805 2.55890 356 ft 9 kts 105°
2026-05-08 20:06 48.99793 2.55979 357 ft 9 kts 102°
2026-05-08 20:06 48.99753 2.56027 360 ft 7 kts 168°
2026-05-08 20:06 48.99706 2.56035 354 ft 6 kts 173°
2026-05-08 20:06 48.99660 2.56043 354 ft 8 kts 173°
2026-05-08 20:07 48.99620 2.56090 357 ft 8 kts 112°
2026-05-08 20:07 48.99622 2.56248 357 ft 35 kts 85°
2026-05-08 20:07 48.99663 2.57012 352 ft 106 kts 85°
2026-05-08 20:07 48.99741 2.58419 357 ft 158 kts 85°
2026-05-08 20:08 48.99833 2.60147 871 ft 160 kts 85°
2026-05-08 20:08 48.99916 2.61813 1580 ft 158 kts 84°
2026-05-08 20:08 49.00004 2.63487 2233 ft 159 kts 85°
2026-05-08 20:08 49.00093 2.65171 2860 ft 160 kts 85°
2026-05-08 20:09 49.00183 2.66869 3433 ft 162 kts 86°
2026-05-08 20:09 49.00278 2.68646 3812 ft 178 kts 85°
2026-05-08 20:09 49.00382 2.70653 4058 ft 202 kts 86°
2026-05-08 20:09 49.00497 2.72904 4386 ft 225 kts 86°
2026-05-08 20:10 49.00627 2.75403 4732 ft 249 kts 86°
2026-05-08 20:10 49.00710 2.78130 5256 ft 263 kts 96°
2026-05-08 20:10 49.00217 2.80792 5965 ft 269 kts 120°
2026-05-08 20:10 48.98997 2.82945 6701 ft 272 kts 146°
2026-05-08 20:11 48.97265 2.84085 7440 ft 274 kts 172°
2026-05-08 20:11 48.95373 2.83944 8202 ft 275 kts 197°
2026-05-08 20:11 48.93548 2.83053 9019 ft 276 kts 200°
2026-05-08 20:11 48.91720 2.82136 9845 ft 278 kts 200°
2026-05-08 20:12 48.89860 2.81201 10413 ft 289 kts 200°
2026-05-08 20:12 48.87870 2.80200 10635 ft 310 kts 200°
2026-05-08 20:12 48.85814 2.79175 11147 ft 318 kts 200°
2026-05-08 20:12 48.83695 2.78127 11793 ft 323 kts 199°
2026-05-08 20:13 48.81545 2.77062 12441 ft 327 kts 199°
2026-05-08 20:13 48.79363 2.75989 13108 ft 331 kts 199°
2026-05-08 20:13 48.77157 2.74906 13776 ft 336 kts 199°
2026-05-08 20:13 48.74906 2.73849 14272 ft 344 kts 194°
2026-05-08 20:14 48.72488 2.73675 14711 ft 355 kts 173°
2026-05-08 20:14 48.70073 2.74620 15259 ft 361 kts 165°
2026-05-08 20:14 48.67658 2.75728 15859 ft 364 kts 165°
2026-05-08 20:14 48.65220 2.76860 16448 ft 367 kts 165°
2026-05-08 20:15 48.62765 2.78004 17022 ft 371 kts 165°
2026-05-08 20:15 48.60286 2.79159 17582 ft 374 kts 165°
2026-05-08 20:15 48.57784 2.80314 18133 ft 378 kts 166°
2026-05-08 20:15 48.55257 2.81473 18644 ft 381 kts 166°
2026-05-08 20:16 48.52708 2.82639 19092 ft 385 kts 166°
2026-05-08 20:16 48.50132 2.83818 19528 ft 389 kts 165°
2026-05-08 20:16 48.47561 2.84997 19958 ft 393 kts 165°
2026-05-08 20:16 48.44930 2.86204 20376 ft 397 kts 165°
2026-05-08 20:17 48.42278 2.87418 20775 ft 401 kts 165°
2026-05-08 20:17 48.39595 2.88640 21159 ft 404 kts 165°
2026-05-08 20:17 48.36892 2.89869 21583 ft 406 kts 165°
2026-05-08 20:17 48.34175 2.91104 21978 ft 410 kts 165°
2026-05-08 20:18 48.31435 2.92353 22358 ft 413 kts 165°
2026-05-08 20:18 48.28670 2.93611 22721 ft 416 kts 164°
2026-05-08 20:18 48.25884 2.94878 23091 ft 420 kts 164°
2026-05-08 20:18 48.23075 2.96155 23452 ft 423 kts 164°
2026-05-08 20:19 48.20247 2.97438 23789 ft 426 kts 164°
2026-05-08 20:19 48.17394 2.98727 24108 ft 429 kts 164°
2026-05-08 20:19 48.14532 3.00019 24444 ft 431 kts 165°
2026-05-08 20:19 48.11644 3.01321 24745 ft 435 kts 165°
2026-05-08 20:20 48.08735 3.02632 24988 ft 437 kts 165°
2026-05-08 20:20 48.05841 3.03938 25037 ft 430 kts 165°
2026-05-08 20:20 48.03036 3.05205 25048 ft 426 kts 165°
2026-05-08 20:20 48.00205 3.06479 25048 ft 424 kts 165°
2026-05-08 20:21 47.97380 3.07747 25051 ft 424 kts 165°
2026-05-08 20:21 47.94561 3.09009 25050 ft 422 kts 165°
2026-05-08 20:21 47.91760 3.10279 25048 ft 420 kts 164°
2026-05-08 20:21 47.88970 3.11585 25048 ft 420 kts 163°
2026-05-08 20:22 47.86187 3.12922 25046 ft 420 kts 163°
2026-05-08 20:22 47.83410 3.14271 25042 ft 420 kts 163°
2026-05-08 20:22 47.80626 3.15620 25045 ft 420 kts 163°
2026-05-08 20:22 47.78786 3.16506 25043 ft 420 kts 163°
2026-05-08 20:23 47.75066 3.18282 25030 ft 420 kts 163°
2026-05-08 20:23 47.72284 3.19600 25045 ft 419 kts 163°
2026-05-08 20:23 47.69510 3.20907 25053 ft 418 kts 163°
2026-05-08 20:23 47.66737 3.22209 25054 ft 418 kts 163°
2026-05-08 20:24 47.63970 3.23509 25054 ft 417 kts 163°
2026-05-08 20:24 47.61197 3.24814 25055 ft 416 kts 163°
2026-05-08 20:24 47.58447 3.26106 25053 ft 416 kts 163°
2026-05-08 20:24 47.55688 3.27405 25051 ft 416 kts 163°
2026-05-08 20:25 47.52932 3.28704 25048 ft 415 kts 163°
2026-05-08 20:25 47.50177 3.29998 25049 ft 415 kts 163°
2026-05-08 20:25 47.47425 3.31289 25050 ft 414 kts 163°
2026-05-08 20:25 47.44713 3.32562 25049 ft 414 kts 163°
2026-05-08 20:26 47.41967 3.33849 25039 ft 414 kts 163°
2026-05-08 20:26 47.39221 3.35135 25031 ft 414 kts 163°
2026-05-08 20:26 47.36471 3.36420 25026 ft 415 kts 163°
2026-05-08 20:26 47.33716 3.37701 25023 ft 415 kts 163°
2026-05-08 20:27 47.30962 3.38980 25019 ft 414 kts 163°
2026-05-08 20:27 47.28215 3.40259 25031 ft 414 kts 163°
2026-05-08 20:27 47.25471 3.41538 25037 ft 413 kts 163°
2026-05-08 20:27 47.22736 3.42813 25039 ft 412 kts 163°
2026-05-08 20:28 47.20001 3.44083 25040 ft 412 kts 163°
2026-05-08 20:28 47.17265 3.45348 25040 ft 412 kts 163°
2026-05-08 20:28 47.14529 3.46612 25036 ft 411 kts 163°
2026-05-08 20:28 47.11801 3.47875 25027 ft 411 kts 163°
2026-05-08 20:29 47.09073 3.49134 25033 ft 410 kts 163°
2026-05-08 20:29 47.06352 3.50386 25030 ft 410 kts 163°
2026-05-08 20:29 47.03668 3.51622 25031 ft 409 kts 163°
2026-05-08 20:29 47.00951 3.52871 25031 ft 409 kts 163°
2026-05-08 20:30 46.98236 3.54121 25030 ft 408 kts 163°
2026-05-08 20:30 46.95524 3.55369 25029 ft 408 kts 163°
2026-05-08 20:30 46.92807 3.56619 25028 ft 408 kts 163°
2026-05-08 20:30 46.90100 3.57862 25012 ft 408 kts 163°
2026-05-08 20:31 46.88306 3.58687 25024 ft 407 kts 163°
2026-05-08 20:31 46.85611 3.59923 25031 ft 406 kts 163°
2026-05-08 20:31 46.82921 3.61155 25033 ft 405 kts 163°
2026-05-08 20:31 46.80234 3.62379 25033 ft 404 kts 163°
2026-05-08 20:32 46.77556 3.63595 24997 ft 401 kts 163°
2026-05-08 20:32 46.74919 3.64795 24757 ft 393 kts 163°
2026-05-08 20:32 46.72318 3.65978 24521 ft 390 kts 163°
2026-05-08 20:32 46.69738 3.67154 24287 ft 388 kts 163°
2026-05-08 20:33 46.67166 3.68324 24056 ft 386 kts 163°
2026-05-08 20:33 46.64606 3.69486 23825 ft 385 kts 163°
2026-05-08 20:33 46.62052 3.70645 23599 ft 383 kts 163°
2026-05-08 20:33 46.59534 3.71789 23244 ft 374 kts 163°
2026-05-08 20:34 46.57072 3.72905 22817 ft 367 kts 163°
2026-05-08 20:34 46.54653 3.74000 22372 ft 361 kts 164°
2026-05-08 20:34 46.49931 3.76132 21508 ft 350 kts 164°
2026-05-08 20:35 46.47626 3.77169 21090 ft 345 kts 164°
2026-05-08 20:35 46.45349 3.78194 20666 ft 340 kts 164°
2026-05-08 20:35 46.43103 3.79203 20247 ft 336 kts 165°
2026-05-08 20:35 46.40869 3.80205 20008 ft 341 kts 165°
2026-05-08 20:36 46.38590 3.81356 19996 ft 352 kts 158°
2026-05-08 20:36 46.36426 3.83123 19274 ft 364 kts 146°
2026-05-08 20:36 46.34564 3.85662 18574 ft 370 kts 131°
2026-05-08 20:36 46.33038 3.88616 18233 ft 362 kts 129°
2026-05-08 20:37 46.31543 3.91490 17855 ft 354 kts 130°
2026-05-08 20:37 46.30049 3.94298 17523 ft 350 kts 130°
2026-05-08 20:37 46.28583 3.97033 17175 ft 347 kts 130°
2026-05-08 20:37 46.27106 3.99780 16823 ft 344 kts 130°
2026-05-08 20:38 46.25640 4.02508 16502 ft 343 kts 130°
2026-05-08 20:38 46.24179 4.05237 16161 ft 342 kts 130°
2026-05-08 20:38 46.22730 4.07958 15824 ft 340 kts 130°
2026-05-08 20:38 46.21291 4.10656 15491 ft 338 kts 130°
2026-05-08 20:39 46.19856 4.13346 15148 ft 337 kts 129°
2026-05-08 20:39 46.18432 4.16014 14834 ft 335 kts 129°
2026-05-08 20:39 46.17014 4.18670 14505 ft 333 kts 129°
2026-05-08 20:39 46.15603 4.21306 14176 ft 331 kts 129°
2026-05-08 20:40 46.14216 4.23898 13853 ft 329 kts 129°
2026-05-08 20:40 46.12820 4.26504 13504 ft 327 kts 129°
2026-05-08 20:40 46.11452 4.29046 13300 ft 312 kts 129°
2026-05-08 20:40 46.10127 4.31506 12976 ft 304 kts 129°
2026-05-08 20:41 46.08855 4.33868 12598 ft 301 kts 129°
2026-05-08 20:41 46.07565 4.36270 12295 ft 298 kts 129°
2026-05-08 20:41 46.06313 4.38597 12002 ft 297 kts 129°
2026-05-08 20:41 46.05048 4.40940 11705 ft 295 kts 129°
2026-05-08 20:42 46.03786 4.43276 11428 ft 294 kts 129°
2026-05-08 20:42 46.02533 4.45591 11134 ft 292 kts 129°
2026-05-08 20:42 46.01310 4.47854 10965 ft 280 kts 129°
2026-05-08 20:42 46.00144 4.50019 10836 ft 266 kts 127°
2026-05-08 20:43 45.99171 4.52208 10561 ft 255 kts 123°
2026-05-08 20:43 45.98253 4.54360 10255 ft 250 kts 123°
2026-05-08 20:43 45.97338 4.56495 10121 ft 251 kts 123°
2026-05-08 20:43 45.96571 4.58751 9998 ft 253 kts 110°
2026-05-08 20:44 45.96208 4.61232 9725 ft 253 kts 96°
2026-05-08 20:44 45.96290 4.63757 9425 ft 254 kts 82°
2026-05-08 20:44 45.96726 4.66224 9151 ft 254 kts 76°
2026-05-08 20:44 45.97187 4.68665 8883 ft 253 kts 76°
2026-05-08 20:45 45.97635 4.71070 8630 ft 252 kts 77°
2026-05-08 20:45 45.98084 4.73500 8362 ft 251 kts 77°
2026-05-08 20:45 45.98531 4.75921 8087 ft 250 kts 77°
2026-05-08 20:45 45.98977 4.78340 7830 ft 250 kts 77°
2026-05-08 20:46 45.99422 4.80753 7567 ft 249 kts 77°
2026-05-08 20:46 45.99866 4.83161 7307 ft 248 kts 77°
2026-05-08 20:46 46.00302 4.85561 7039 ft 247 kts 79°
2026-05-08 20:46 46.00484 4.88000 6782 ft 244 kts 92°
2026-05-08 20:47 46.00360 4.90424 6538 ft 243 kts 97°
2026-05-08 20:47 46.00214 4.92836 6274 ft 242 kts 97°
2026-05-08 20:47 46.00071 4.95242 6017 ft 241 kts 97°
2026-05-08 20:47 45.99931 4.97636 5759 ft 240 kts 97°
2026-05-08 20:48 45.99793 5.00018 5646 ft 239 kts 97°
2026-05-08 20:48 45.99435 5.02330 5553 ft 235 kts 115°
2026-05-08 20:48 45.98589 5.04274 5445 ft 231 kts 134°
2026-05-08 20:48 45.97348 5.05713 5153 ft 229 kts 153°
2026-05-08 20:49 45.95872 5.06432 5037 ft 224 kts 171°
2026-05-08 20:49 45.94342 5.06650 4842 ft 216 kts 176°
2026-05-08 20:49 45.92869 5.06823 4569 ft 209 kts 176°
2026-05-08 20:49 45.91440 5.06996 4294 ft 203 kts 176°
2026-05-08 20:50 45.90053 5.07165 4031 ft 197 kts 176°
2026-05-08 20:50 45.88704 5.07330 3780 ft 192 kts 175°
2026-05-08 20:50 45.87387 5.07491 3528 ft 188 kts 175°
2026-05-08 20:50 45.86094 5.07650 3282 ft 184 kts 176°
2026-05-08 20:51 45.84835 5.07803 3052 ft 178 kts 176°
2026-05-08 20:51 45.83640 5.07950 2810 ft 166 kts 175°
2026-05-08 20:51 45.82529 5.08085 2607 ft 156 kts 176°
2026-05-08 20:51 45.81463 5.08215 2400 ft 152 kts 176°
2026-05-08 20:52 45.80413 5.08343 2193 ft 151 kts 175°
2026-05-08 20:52 45.79380 5.08469 2000 ft 150 kts 175°
2026-05-08 20:52 45.78338 5.08596 1803 ft 150 kts 175°
2026-05-08 20:52 45.77296 5.08718 1578 ft 148 kts 175°
2026-05-08 20:53 45.76308 5.08836 1380 ft 138 kts 174°
2026-05-08 20:53 45.75361 5.08961 1192 ft 136 kts 174°
2026-05-08 20:53 45.74431 5.09075 1024 ft 135 kts 175°
2026-05-08 20:53 45.73501 5.09187 846 ft 133 kts 174°
2026-05-08 20:54 45.72620 5.09297 809 ft 112 kts 176°
2026-05-08 20:54 45.72053 5.09366 819 ft 49 kts 174°
2026-05-08 20:54 45.71766 5.09334 822 ft 37 kts 201°
2026-05-08 20:54 45.71640 5.09204 815 ft 18 kts 253°
2026-05-08 20:55 45.71634 5.09136 814 ft 0 kts 266°
2026-05-08 20:55 45.71634 5.09126 814 ft 2 kts 266°
2026-05-08 20:55 45.71633 5.09111 814 ft 2 kts 265°
2026-05-08 20:55 45.71631 5.09070 814 ft 9 kts 265°
2026-05-08 20:56 45.71621 5.08926 813 ft 20 kts 263°
2026-05-08 20:56 45.71606 5.08702 808 ft 25 kts 264°
2026-05-08 20:56 45.71595 5.08549 804 ft 7 kts 263°
2026-05-08 20:56 45.71559 5.08514 803 ft 7 kts 186°
2026-05-08 20:57 45.71510 5.08514 803 ft 6 kts 174°
2026-05-08 20:57 45.71478 5.08519 805 ft 3 kts 173°
2026-05-08 20:57 45.71429 5.08502 808 ft 13 kts 226°
2026-05-08 20:57 45.71411 5.08397 805 ft 9 kts 264°
2026-05-08 20:58 45.71409 5.08307 803 ft 9 kts 275°
2026-05-08 20:58 45.71426 5.08202 802 ft 14 kts 285°
2026-05-08 20:58 45.71454 5.08047 801 ft 15 kts 284°
2026-05-08 20:58 45.71484 5.07935 797 ft 9 kts 326°
2026-05-08 20:59 45.71536 5.07897 797 ft 7 kts 333°
2026-05-08 20:59 45.71549 5.07887 797 ft 0 kts 333°